#timestamp,LO_Frequency,Hit,StdDev 
1512216015.9,286046999.4,N
1512216035.7,286046997.4,N
1512216055.5,286046998.3,N
1512216075.4,286046998.9,N
1512216095.2,286047001.1,N
1512216115.0,286047000.8,N
1512216115.9,286047000.8,N
1512216135.7,286047002.0,N
1512216155.6,286047002.8,N
1512216175.4,286046998.6,N
1512216195.2,286047000.1,N
1512216215.1,286046996.9,N
1512216216.0,286046996.9,N
1512216235.8,286046998.1,N
1512216255.6,286047001.2,N
1512216275.5,286047002.8,N
1512216295.3,286047002.6,N
1512216315.1,286046999.8,N
1512216335.9,286047004.4,N
1512216355.7,286047002.2,N
1512216375.5,286046998.4,N
1512216395.4,286046999.0,N
1512216415.2,286046998.8,N
1512216435.0,286046997.1,N
1512216435.9,286046997.1,N
1512216455.7,286046996.5,N
1512216475.6,286046994.9,N
1512216495.4,286046999.4,N
1512216515.2,286046995.3,N
1512216535.1,286046997.9,N
1512216536.0,286046997.9,N
1512216555.8,286046996.2,N
1512216575.6,286046994.9,N
1512216595.5,286046995.0,N
1512216615.3,286046997.7,N
1512216635.1,286046993.7,N
1512216655.9,286046996.0,N
1512216675.7,286046995.1,N
1512216695.5,286046997.6,N
1512216715.4,286046995.8,N
1512216735.2,286046994.7,N
1512216755.0,286046990.1,Y
1512216755.9,286046990.1,P
1512216775.8,286046995.7,N
1512216795.6,286046995.4,N
1512216815.4,286046996.5,N
1512216835.3,286046998.9,N
1512216855.1,286047002.3,N
1512216856.0,286047002.3,N
1512216875.8,286047004.4,N
1512216895.7,286047002.0,N
1512216915.5,286047002.7,N
1512216935.3,286047004.4,N
1512216955.1,286047001.3,N
1512216975.9,286047002.0,N
1512216995.7,286046998.5,N
1512217015.5,286047000.4,N
1512217035.4,286047002.1,N
1512217055.2,286047002.7,N
1512217075.0,286047002.3,N
1512217075.9,286047002.3,N
1512217095.8,286047000.4,N
1512217115.6,286046999.3,N
1512217135.4,286046994.3,N
1512217155.3,286046995.9,N
1512217175.1,286046997.8,N
1512217176.0,286046997.8,N
1512217195.8,286047001.1,N
1512217215.7,286046996.5,N
1512217235.5,286046999.3,N
1512217255.3,286046997.7,N
1512217275.1,286046996.2,N
1512217295.9,286046994.6,N
1512217315.7,286046993.0,N
1512217335.5,286046994.6,N
1512217355.4,286046993.4,N
1512217375.2,286046996.1,N
1512217395.0,286046995.3,N
1512217395.9,286046995.3,N
1512217415.8,286046997.8,N
1512217435.6,286046993.7,N
1512217455.4,286046995.6,N
1512217475.3,286046994.0,N
1512217495.1,286046992.1,N
1512217496.0,286046992.1,N
1512217515.8,286046994.1,N
1512217535.7,286046992.3,N
1512217555.5,286046994.8,N
1512217575.3,286046993.4,N
1512217595.2,286046995.5,N
1512217615.9,286046995.9,N
1512217635.7,286046995.4,N
1512217655.6,286046993.5,N
1512217675.4,286046996.1,N
1512217695.2,286046996.5,N
1512217715.0,286046998.4,N
1512217715.9,286046998.4,N
1512217735.8,286047001.2,N
1512217755.6,286046997.3,N
1512217775.4,286046993.7,N
1512217795.3,286046993.4,Y
1512217815.1,286047002.3,P
1512217835.8,286047005.6,N
1512217855.7,286047004.1,N
1512217875.5,286047000.5,N
1512217895.3,286046998.3,N
1512217915.2,286046999.3,N
1512217935.9,286047000.3,N
1512217955.7,286046998.2,N
1512217975.6,286046999.2,N
1512217995.4,286046999.1,N
1512218015.2,286046997.2,N
1512218035.1,286046995.9,N
1512218036.0,286046995.9,N
1512218055.8,286046993.4,N
1512218075.6,286046996.2,N
1512218095.5,286046993.7,N
1512218115.3,286046997.8,N
1512218135.1,286046998.0,N
1512218155.8,286046997.4,N
1512218175.7,286046995.4,N
1512218195.5,286046993.5,N
1512218215.3,286046994.4,N
1512218235.2,286046997.2,N
1512218255.9,286046995.7,N
1512218275.7,286046999.5,N
1512218295.6,286046996.7,N
1512218315.4,286046999.5,N
1512218335.2,286046998.4,N
1512218355.1,286047002.6,N
1512218356.0,286047002.6,N
1512218375.8,286047002.1,N
1512218395.6,286047000.8,N
1512218415.5,286046999.9,N
1512218435.3,286047001.6,N
1512218455.1,286047001.7,N
1512218475.8,286047004.0,N
1512218495.7,286047004.1,N
1512218515.5,286047001.9,N
1512218535.3,286046999.2,N
1512218555.2,286046998.3,N
1512218575.0,286046997.0,N
1512218575.9,286046997.0,N
1512218595.7,286046996.3,N
1512218615.6,286046997.1,N
1512218635.4,286046996.6,N
1512218655.2,286046997.0,N
1512218675.1,286046997.2,N
1512218676.0,286046997.2,N
1512218695.8,286046995.3,N
1512218715.6,286046995.6,N
1512218735.5,286046996.9,N
1512218755.3,286046998.6,N
1512218775.1,286047001.3,N
1512218795.9,286047002.2,N
1512218815.7,286047002.8,N
1512218835.5,286047000.9,N
1512218855.3,286047001.2,N
1512218875.2,286047002.2,N
1512218895.0,286046999.7,N
1512218895.9,286046999.7,N
1512218915.7,286047000.0,N
1512218935.6,286047000.9,N
1512218955.4,286046999.6,N
1512218975.2,286046995.7,N
1512218995.1,286046993.3,N
1512218996.0,286046993.3,N
1512219015.8,286046990.7,Y
1512219035.6,286046992.3,P
1512219055.5,286046992.8,N
1512219075.3,286046991.6,N
1512219095.1,286046989.9,Y
1512219115.9,286046994.6,P
1512219135.7,286046994.5,P
1512219155.5,286046992.9,P
1512219175.4,286046992.5,Y
1512219195.2,286046999.6,P
1512219215.0,286046995.5,N
1512219215.9,286046995.5,N
1512219235.8,286046993.7,Y
1512219255.6,286046998.9,P
1512219275.4,286046999.6,N
1512219295.3,286046999.6,N
1512219315.1,286046993.4,Y
1512219335.9,286046997.8,P
1512219355.7,286046995.6,P
1512219375.5,286046992.3,P
1512219395.4,286046992.1,Y
1512219415.2,286046999.1,P
1512219435.0,286046998.6,N
1512219435.9,286046998.6,N
1512219455.7,286047001.7,N
1512219475.6,286047002.4,N
1512219495.4,286047007.5,Y
1512219515.2,286047005.3,P
1512219535.1,286047006.5,N
1512219536.0,286047006.5,N
1512219555.8,286047010.7,Y
1512219575.7,286047000.9,P
1512219595.5,286047003.4,N
